User: anonymous   Login
Location: Gugi
(45.4667°N, 11.1000°E)
Time: 23:48:14
(UTC+00:00)
Language:

Cosmos 1538 Rocket - Orbit

View from above orbital plane
View from above orbital plane
View from above satellite
View from above satellite

Ground track
Ground track

The orbit data is extracted from the following two-line orbital elements,

1 14760U 84019B   20023.49616995 -.00000090 +00000-0 -21826-4 0  9990
2 14760 074.0413 178.4652 0027677 167.0209 193.1663 14.35869985879760
Epoch (UTC): 23 January 2020 11:54:29
Eccentricity: 0.0027677
inclination: 74.0413°
perigee height: 752 km
apogee height: 792 km
right ascension of ascending node: 178.4652°
argument of perigee: 167.0209°
revolutions per day: 14.35869985
mean anomaly at epoch: 193.1663°
orbit number at epoch: 87976

The dashed part of the orbit path shows where the satellite is in the earth's shadow,  

DLR